Meteo Giornale » Osservazioni meteo Stati Uniti (USA) » Davenport
ore: 20:52 - Osservazioni Meteo Davenport
Lat. 41° 36' N Lon. 90° 35' W Alt. 229 metri s.l.m.
27 °C
Sereno
Temp. 24 Ore
24 °C
32 °C
Sud
7.4 Km/h
Dew point 23 °C
Umidità 78 %
Visibilità 10 Km
Il sole sorge alle ore 06:27
Il sole tramonta alle ore 19:37
| Data e Ora | Cielo e Fenomeni | T °C | DP °C | Um. % | Pres. hPa | Vis. km | Vento km/h | |
|---|---|---|---|---|---|---|---|---|
| Oggi h: 20:52 | Sereno | 27 | 23 | 78 | 1013 | 10 | S 7.4 | |
| Oggi h: 19:52 | Sereno | 27 | 23 | 78 | 1012 | 10 | N 5.5 | |
| Oggi h: 18:52 | Sereno | 30 | 22 | 62 | 1012 | 10 | S/SO 11.1 | |
| Oggi h: 17:52 | Sereno | 31 | 22 | 58 | 1012 | 10 | SO 11.1 | |
| Oggi h: 16:52 | Sereno | 32 | 22 | 55 | 1012 | 10 | S/SO 14.8 | |
| Oggi h: 15:52 | Sereno | 32 | 22 | 55 | 1012 | 10 | SO 13 | |
| Oggi h: 14:52 | Sereno | 32 | 22 | 55 | 1012 | 10 | S/SO 14.8 | |
| Oggi h: 13:52 | Sereno | 32 | 22 | 55 | 1012 | 10 | O/SO 13 | |
| Oggi h: 12:52 | Sereno | 31 | 21 | 55 | 1013 | 10 | O/SO 16.7 | |
| Oggi h: 11:52 | Poco Nuvoloso | 31 | 21 | 55 | 1013 | 10 | SO 20.3 | |
| Oggi h: 10:52 | Sereno | 29 | 20 | 58 | 1013 | 10 | SO 22.2 | |
| Oggi h: 09:52 | Sereno | 28 | 19 | 58 | 1012 | 10 | SO 22.2 | |
| Oggi h: 08:52 | Sereno | 27 | 18 | 57 | 1012 | 10 | S/SO 20.3 | |
| Oggi h: 07:52 | Poco Nuvoloso | 25 | 18 | 65 | 1012 | 10 | S/SO 20.3 | |
| Oggi h: 06:52 | Molto Nuvoloso | 25 | 18 | 65 | 1012 | 10 | S/SO 22.2 | |
| Oggi h: 05:52 | Molto Nuvoloso | 24 | 18 | 69 | 1012 | 10 | S 20.3 | |
| Oggi h: 04:52 | Coperto | 24 | 17 | 64 | 1012 | 10 | S 20.3 | |
| Oggi h: 03:52 | Sereno | 24 | 17 | 64 | 1012 | 10 | S 22.2 | |
| Oggi h: 02:52 | Sereno | 25 | 18 | 65 | 1012 | 10 | S 22.2 | |
| Oggi h: 01:52 | Sereno | 25 | 18 | 65 | 1012 | 10 | S 16.7 | |
| Oggi h: 00:52 | Sereno | 26 | 18 | 61 | 1013 | 10 | S 18.5 | |
| Ieri h: 23:52 | Sereno | 26 | 19 | 65 | 1012 | 10 | S 22.2 | |
| Ieri h: 22:52 | Sereno | 26 | 21 | 73 | 1013 | 10 | S/SE 16.7 | |
| Ieri h: 21:52 | Sereno | 25 | 21 | 78 | 1014 | 10 | S/SE 13 | |



